Total_Precipitation_Accumulation
0.00 0.00 0.01 0.02 0.04 0.10 0.16 0.04 0.01 0.00 0.00 0.00 0.00 0.00 0.00 0.00 0.01 0.04 0.00 0.00 0.00 0.00 0.00 0.00 0.00 0.00 0.00 0.00 0.00 0.00 0.00 0.00 0.00 0.00 0.00 0.00 0.00 0.00 0.00 0.00 0.00 0.00 0.00 0.00 0.00 0.00 0.00 0.00 0.00
0.00 0.00 0.02 0.04 0.03 0.05 0.08 0.04 0.01 0.00 0.00 0.00 0.00 0.00 0.00 0.00 0.00 0.00 0.00 0.00 0.00 0.00 0.00 0.00 0.00 0.00 0.00 0.00 0.00 0.00 0.00 0.00 0.00 0.00 0.00 0.00 0.00 0.00 0.00 0.00 0.00 0.00 0.00 0.00 0.00 0.00 0.00 0.00 0.00
0.00 0.00 0.01 0.02 0.04 0.09 0.08 0.02 0.01 0.00 0.00 0.00 0.00 0.00 0.00 0.00 0.00 0.00 0.00 0.00 0.00 0.00 0.00 0.00 0.00 0.00 0.00 0.00 0.00 0.00 0.00 0.01 0.01 0.00 0.00 0.00 0.00 0.00 0.00 0.00 0.00 0.00 0.00 0.00 0.00 0.00 0.00 0.00 0.00
0.00 0.00 0.00 0.01 0.05 0.12 0.09 0.04 0.04 0.03 0.01 0.00 0.00 0.00 0.00 0.00 0.00 0.00 0.00 0.00 0.00 0.00 0.00 0.00 0.00 0.00 0.00 0.00 0.00 0.01 0.01 0.01 0.01 0.00 0.00 0.00 0.00 0.00 0.00 0.00 0.00 0.00 0.00 0.00 0.00 0.00 0.00 0.00 0.00
0.00 0.00 0.00 0.01 0.03 0.09 0.08 0.06 0.07 0.06 0.01 0.01 0.00 0.00 0.00 0.00 0.00 0.00 0.00 0.00 0.00 0.00 0.00 0.00 0.00 0.00 0.00 0.00 0.00 0.00 0.00 0.00 0.00 0.00 0.00 0.00 0.00 0.00 0.00 0.00 0.00 0.00 0.00 0.00 0.00 0.00 0.00 0.00 0.00
0.00 0.00 0.00 0.01 0.02 0.04 0.05 0.06 0.09 0.08 0.03 0.01 0.00 0.00 0.00 0.00 0.00 0.00 0.00 0.00 0.00 0.00 0.00 0.00 0.00 0.00 0.00 0.00 0.00 0.00 0.00 0.00 0.00 0.00 0.00 0.00 0.00 0.01 0.01 0.00 0.00 0.00 0.00 0.00 0.00 0.00 0.00 0.00 0.01
0.00 0.00 0.00 0.00 0.01 0.03 0.05 0.06 0.11 0.08 0.05 0.03 0.01 0.00 0.00 0.00 0.00 0.00 0.00 0.00 0.00 0.00 0.00 0.00 0.00 0.00 0.00 0.00 0.00 0.00 0.00 0.00 0.00 0.00 0.00 0.00 0.00 0.01 0.01 0.01 0.01 0.02 0.02 0.01 0.01 0.00 0.01 0.01 0.02
0.00 0.00 0.00 0.00 0.01 0.02 0.04 0.05 0.06 0.06 0.07 0.04 0.02 0.01 0.00 0.00 0.00 0.00 0.00 0.00 0.00 0.00 0.00 0.00 0.00 0.00 0.00 0.00 0.01 0.00 0.00 0.00 0.00 0.00 0.00 0.00 0.00 0.00 0.01 0.01 0.01 0.01 0.02 0.01 0.01 0.02 0.03 0.03 0.05
0.00 0.00 0.00 0.00 0.00 0.01 0.02 0.03 0.03 0.04 0.05 0.03 0.02 0.02 0.01 0.00 0.00 0.00 0.00 0.00 0.00 0.00 0.00 0.00 0.00 0.00 0.00 0.00 0.01 0.01 0.01 0.01 0.01 0.01 0.01 0.01 0.01 0.01 0.03 0.02 0.04 0.04 0.06 0.06 0.05 0.07 0.09 0.10 0.10
0.00 0.00 0.00 0.00 0.00 0.00 0.01 0.01 0.02 0.02 0.04 0.07 0.10 0.09 0.04 0.01 0.00 0.00 0.00 0.00 0.00 0.00 0.00 0.00 0.00 0.00 0.00 0.00 0.01 0.01 0.01 0.02 0.02 0.02 0.05 0.06 0.08 0.06 0.04 0.09 0.12 0.14 0.19 0.17 0.14 0.19 0.19 0.13 0.06
0.00 0.00 0.00 0.00 0.00 0.00 0.00 0.00 0.00 0.00 0.02 0.08 0.24 0.24 0.06 0.01 0.00 0.00 0.00 0.00 0.00 0.00 0.00 0.00 0.00 0.00 0.00 0.00 0.00 0.01 0.04 0.12 0.13 0.13 0.17 0.20 0.22 0.15 0.09 0.13 0.20 0.23 0.25 0.22 0.29 0.36 0.23 0.17 0.16
0.00 0.00 0.00 0.00 0.00 0.00 0.00 0.00 0.00 0.00 0.00 0.09 0.31 0.29 0.07 0.02 0.00 0.00 0.00 0.00 0.00 0.00 0.00 0.01 0.01 0.01 0.00 0.00 0.02 0.03 0.05 0.10 0.13 0.12 0.15 0.26 0.22 0.21 0.20 0.19 0.17 0.21 0.23 0.32 0.33 0.32 0.36 0.36 0.29
0.00 0.00 0.00 0.00 0.00 0.00 0.00 0.00 0.00 0.00 0.00 0.02 0.07 0.14 0.06 0.03 0.02 0.01 0.01 0.01 0.01 0.02 0.03 0.04 0.04 0.02 0.02 0.02 0.04 0.05 0.07 0.09 0.10 0.16 0.20 0.27 0.30 0.32 0.36 0.30 0.26 0.20 0.30 0.46 0.57 0.48 0.46 0.50 0.42
0.00 0.00 0.00 0.00 0.00 0.00 0.00 0.00 0.00 0.00 0.00 0.01 0.03 0.06 0.05 0.06 0.09 0.10 0.08 0.06 0.06 0.08 0.11 0.12 0.11 0.11 0.10 0.08 0.09 0.13 0.15 0.15 0.19 0.28 0.31 0.50 0.57 0.54 0.51 0.45 0.43 0.34 0.46 0.61 0.66 0.60 0.58 0.49 0.49
0.00 0.00 0.00 0.00 0.00 0.00 0.00 0.00 0.00 0.00 0.00 0.00 0.00 0.02 0.03 0.05 0.08 0.12 0.14 0.17 0.17 0.19 0.23 0.27 0.29 0.30 0.32 0.32 0.29 0.33 0.31 0.35 0.42 0.56 0.68 0.86 0.98 0.97 0.94 0.80 0.61 0.61 0.75 0.77 0.67 0.60 0.71 0.54 0.49
0.00 0.00 0.00 0.00 0.00 0.00 0.00 0.00 0.00 0.00 0.00 0.00 0.00 0.01 0.02 0.04 0.07 0.11 0.16 0.26 0.37 0.45 0.57 0.66 0.71 0.80 0.86 0.75 0.64 0.63 0.71 0.79 0.75 0.82 0.94 0.98 1.03 1.09 1.17 0.92 0.70 0.83 0.97 0.92 0.82 0.79 0.85 0.72 0.70
0.00 0.00 0.00 0.00 0.00 0.00 0.00 0.00 0.00 0.00 0.01 0.01 0.02 0.04 0.05 0.07 0.12 0.19 0.31 0.53 0.75 0.95 1.15 1.32 1.50 1.54 1.35 1.12 1.00 0.94 0.89 0.81 0.66 0.57 0.57 0.58 0.56 0.62 0.67 0.44 0.38 0.59 0.69 0.61 0.60 0.74 0.78 0.72 0.79
0.00 0.00 0.00 0.00 0.00 0.00 0.00 0.00 0.02 0.04 0.06 0.06 0.05 0.05 0.08 0.13 0.21 0.33 0.52 0.74 1.01 1.39 1.90 2.31 2.31 1.89 1.45 1.07 0.81 0.72 0.65 0.53 0.40 0.32 0.27 0.22 0.21 0.26 0.34 0.20 0.20 0.46 0.52 0.46 0.56 0.60 0.57 0.48 0.54
0.00 0.00 0.00 0.00 0.00 0.00 0.00 0.01 0.03 0.04 0.05 0.05 0.05 0.07 0.12 0.19 0.31 0.49 0.76 1.06 1.42 2.06 2.75 2.98 2.60 2.09 1.45 1.01 0.71 0.45 0.30 0.22 0.17 0.11 0.09 0.10 0.12 0.18 0.30 0.22 0.25 0.40 0.42 0.36 0.39 0.42 0.35 0.23 0.40
0.00 0.00 0.00 0.00 0.00 0.00 0.00 0.00 0.01 0.02 0.02 0.03 0.06 0.10 0.18 0.33 0.53 0.81 1.17 1.41 1.67 2.11 2.60 2.61 2.18 1.64 1.04 0.66 0.45 0.29 0.17 0.10 0.07 0.05 0.04 0.04 0.07 0.13 0.24 0.20 0.15 0.21 0.23 0.18 0.19 0.29 0.30 0.25 0.39
0.00 0.00 0.00 0.00 0.00 0.00 0.00 0.00 0.01 0.01 0.02 0.04 0.05 0.07 0.14 0.29 0.60 1.04 1.54 1.83 1.97 2.00 1.91 1.76 1.32 0.80 0.53 0.35 0.26 0.18 0.14 0.12 0.08 0.05 0.04 0.02 0.03 0.04 0.07 0.09 0.11 0.16 0.23 0.22 0.23 0.27 0.29 0.23 0.23
0.00 0.00 0.00 0.00 0.00 0.00 0.00 0.01 0.03 0.06 0.05 0.06 0.07 0.09 0.14 0.30 0.66 1.20 1.54 1.60 1.61 1.50 1.16 0.87 0.67 0.42 0.28 0.24 0.23 0.19 0.13 0.11 0.08 0.06 0.04 0.03 0.03 0.03 0.04 0.05 0.05 0.10 0.17 0.18 0.15 0.17 0.20 0.20 0.15
0.00 0.00 0.00 0.00 0.00 0.00 0.00 0.01 0.05 0.10 0.09 0.08 0.10 0.11 0.19 0.30 0.50 0.75 0.85 0.92 0.94 0.83 0.67 0.53 0.44 0.33 0.32 0.32 0.31 0.31 0.19 0.12 0.08 0.07 0.06 0.05 0.05 0.05 0.05 0.05 0.04 0.06 0.09 0.10 0.09 0.10 0.12 0.13 0.11
0.00 0.00 0.00 0.00 0.02 0.07 0.06 0.06 0.13 0.22 0.15 0.09 0.09 0.10 0.13 0.21 0.35 0.47 0.46 0.43 0.42 0.34 0.35 0.36 0.39 0.43 0.39 0.32 0.28 0.27 0.21 0.16 0.13 0.09 0.08 0.08 0.07 0.07 0.08 0.09 0.08 0.10 0.10 0.10 0.10 0.12 0.12 0.13 0.13
0.00 0.00 0.00 0.02 0.09 0.17 0.10 0.06 0.17 0.28 0.20 0.10 0.07 0.09 0.16 0.27 0.34 0.39 0.43 0.41 0.31 0.24 0.25 0.24 0.22 0.25 0.28 0.26 0.25 0.24 0.24 0.20 0.17 0.15 0.10 0.09 0.09 0.10 0.12 0.15 0.15 0.14 0.13 0.12 0.13 0.15 0.13 0.15 0.17
0.01 0.00 0.00 0.00 0.01 0.02 0.03 0.09 0.22 0.22 0.16 0.10 0.06 0.07 0.14 0.21 0.25 0.25 0.25 0.24 0.19 0.14 0.10 0.09 0.10 0.11 0.12 0.13 0.15 0.17 0.21 0.19 0.18 0.20 0.16 0.13 0.15 0.18 0.20 0.19 0.17 0.15 0.13 0.12 0.13 0.12 0.12 0.18 0.23
0.02 0.01 0.01 0.00 0.00 0.00 0.05 0.13 0.16 0.18 0.14 0.08 0.05 0.04 0.07 0.08 0.09 0.09 0.08 0.07 0.06 0.05 0.04 0.04 0.05 0.05 0.05 0.06 0.08 0.11 0.16 0.18 0.18 0.19 0.18 0.18 0.22 0.23 0.24 0.24 0.22 0.20 0.16 0.15 0.14 0.14 0.17 0.23 0.25
0.02 0.02 0.01 0.00 0.00 0.00 0.03 0.16 0.25 0.21 0.16 0.07 0.03 0.03 0.03 0.03 0.03 0.03 0.03 0.03 0.02 0.02 0.02 0.02 0.02 0.03 0.03 0.04 0.05 0.07 0.09 0.13 0.15 0.14 0.17 0.21 0.20 0.21 0.24 0.29 0.29 0.26 0.24 0.26 0.28 0.24 0.20 0.27 0.36
0.01 0.01 0.01 0.01 0.00 0.00 0.02 0.10 0.12 0.09 0.05 0.02 0.01 0.01 0.01 0.01 0.01 0.01 0.01 0.01 0.01 0.01 0.01 0.01 0.02 0.02 0.02 0.02 0.03 0.04 0.06 0.08 0.10 0.13 0.16 0.18 0.18 0.20 0.23 0.28 0.30 0.29 0.33 0.48 0.60 0.55 0.42 0.44 0.50
0.01 0.01 0.01 0.01 0.01 0.01 0.02 0.07 0.05 0.04 0.02 0.01 0.01 0.00 0.00 0.00 0.00 0.00 0.00 0.00 0.00 0.01 0.01 0.01 0.02 0.02 0.02 0.02 0.02 0.02 0.04 0.06 0.07 0.09 0.12 0.16 0.17 0.17 0.16 0.19 0.22 0.24 0.28 0.41 0.68 0.80 0.77 0.70 0.58